Temp
77 80 79 76 78 78 73 77 75 74 75 75 76 76 74 74 73 74 73 72 73 73
77 77 76 74 74 76 76 76 75 75 75 77 77 76 74 74 72 72 73 72 72 72
77 77 76 75 74 74 74 75 75 75 77 77 77 77 74 71 72 72 73 74 69 73
78 78 76 75 75 74 74 75 76 76 76 78 76 75 73 71 72 73 71 72 70 73
79 77 74 75 75 75 75 76 77 77 77 78 78 76 73 71 69 70 70 67 71 73
77 76 75 75 75 76 76 76 78 78 77 77 76 74 73 71 66 67 70 70 72 73
77 77 76 76 75 76 77 77 77 78 77 77 76 76 74 70 65 68 70 70 72 73
78 78 77 76 76 77 77 77 78 77 78 77 76 74 72 70 72 71 67 67 67 67
79 78 76 75 76 76 76 77 77 77 77 75 77 51 56 66 72 73 72 70 67 68
79 78 77 77 77 76 75 76 75 76 76 74 71 49 50 53 72 72 70 72 70 67
82 79 79 78 76 75 75 73 71 72 74 71 68 48 48 52 72 73 71 71 73 70
82 80 79 77 75 75 75 73 73 73 72 73 69 47 48 58 67 72 69 74 73 71
83 81 79 77 75 75 76 75 78 74 74 62 70 47 47 57 70 68 66 71 73 52
83 81 80 78 76 76 76 76 75 73 72 72 68 63 46 49 70 68 73 74 74 70
MSLP
1006.30 1006.17 1006.55 1006.96 1006.82 1006.82 1007.44 1007.41 1008.15 1008.24 1008.20 1008.23 1008.14 1008.25 1008.49 1008.56 1008.46 1008.37 1008.43 1008.44 1008.48 1008.48
1006.34 1006.51 1006.78 1007.15 1007.31 1007.25 1007.43 1007.83 1008.12 1008.11 1008.13 1008.04 1008.12 1008.33 1008.41 1008.23 1008.39 1008.39 1008.45 1008.52 1008.64 1008.60
1006.23 1006.57 1006.87 1007.22 1007.23 1007.44 1007.75 1007.91 1008.12 1008.19 1008.10 1008.03 1008.12 1008.10 1008.26 1008.40 1008.39 1008.30 1008.27 1008.49 1008.85 1008.60
1005.95 1006.36 1006.75 1006.98 1007.32 1007.59 1007.88 1008.01 1007.94 1007.98 1008.05 1007.98 1007.99 1008.20 1008.31 1008.37 1008.34 1008.11 1008.44 1008.58 1008.86 1008.65
1005.74 1006.24 1006.76 1006.90 1007.19 1007.58 1007.70 1007.82 1007.72 1007.81 1007.88 1007.87 1007.88 1008.02 1008.19 1008.41 1008.75 1008.60 1008.55 1008.81 1008.71 1008.61
1005.80 1006.23 1006.57 1006.76 1007.14 1007.42 1007.60 1007.65 1007.61 1007.68 1007.82 1007.94 1008.07 1008.30 1008.45 1008.76 1009.06 1009.09 1008.83 1008.77 1008.46 1008.63
1005.64 1006.01 1006.34 1006.74 1007.14 1007.34 1007.43 1007.52 1007.57 1007.72 1008.02 1008.21 1008.33 1008.45 1008.67 1009.19 1009.35 1009.14 1009.03 1009.14 1008.99 1009.20
1005.66 1006.02 1006.38 1006.73 1007.02 1007.21 1007.37 1007.43 1007.56 1007.88 1008.06 1008.40 1008.72 1009.04 1009.33 1009.45 1009.05 1009.14 1009.42 1009.57 1009.78 1010.06
1005.59 1006.03 1006.47 1006.84 1007.05 1007.26 1007.43 1007.56 1007.81 1007.99 1008.22 1008.70 1008.94 1010.03 1010.03 1009.69 1009.38 1009.29 1009.45 1009.73 1010.43 1010.76
1005.53 1006.04 1006.50 1006.73 1007.01 1007.34 1007.61 1007.73 1007.92 1008.22 1008.47 1008.92 1010.02 1010.66 1010.69 1010.50 1010.02 1009.73 1009.90 1009.99 1010.45 1011.24
1005.24 1005.87 1006.36 1006.70 1007.07 1007.54 1007.83 1008.07 1008.43 1008.68 1008.86 1009.45 1010.52 1010.99 1011.06 1010.95 1010.56 1010.32 1010.48 1010.56 1010.63 1011.30
1005.12 1005.72 1006.21 1006.66 1007.23 1007.55 1007.77 1008.10 1008.37 1008.66 1008.99 1009.46 1010.60 1011.33 1011.30 1011.19 1011.15 1010.63 1010.92 1010.92 1011.32 1011.76
1004.99 1005.57 1006.07 1006.68 1007.20 1007.61 1007.79 1007.99 1008.03 1008.55 1009.03 1009.96 1010.55 1011.40 1011.46 1011.45 1011.24 1011.17 1011.35 1011.48 1012.09 1012.45
1004.90 1005.49 1006.03 1006.76 1007.27 1007.53 1007.66 1007.99 1008.36 1008.73 1009.33 1009.89 1010.67 1011.44 1011.67 1011.61 1011.47 1011.51 1011.31 1011.60 1012.26 1013.45
Wind_Speed
6 4 3 2 3 3 6 5 6 5 4 3 3 3 3 3 4 5 4 6 6 3
6 4 5 6 5 5 5 6 6 4 3 2 2 2 4 5 7 5 3 2 5 6
6 7 7 6 5 6 6 5 6 4 2 1 2 3 4 4 4 4 4 4 5 4
6 7 7 6 7 7 7 6 6 5 4 2 3 3 3 1 3 5 4 4 4 5
6 6 6 7 7 7 7 7 5 5 4 3 2 2 3 6 3 3 5 4 5 6
6 6 6 7 6 7 7 6 5 5 6 5 4 4 5 10 5 3 5 6 5 8
6 6 7 8 7 7 7 7 7 6 7 6 5 6 8 6 5 4 6 5 7 8
6 7 9 9 8 7 7 6 7 8 7 8 6 5 7 4 7 7 7 6 8 7
8 9 9 9 9 8 7 7 7 6 7 7 7 8 8 3 3 7 9 11 10 10
9 10 10 10 10 8 8 7 7 8 7 8 9 5 2 8 3 6 5 10 11 10
11 11 10 10 10 8 7 7 6 5 7 7 8 5 1 5 5 5 8 9 10 13
11 11 10 10 9 8 8 7 5 6 8 10 9 5 5 3 4 6 9 8 10 10
12 11 10 10 9 8 8 7 6 6 8 9 10 6 6 5 6 8 6 10 12 13
12 11 9 9 8 7 7 8 6 7 8 8 9 7 1 3 8 6 8 9 9 9
Wind_Direction
149 162 170 126 115 154 156 144 152 186 188 175 167 147 168 212 220 206 216 220 229 214
159 153 95 113 151 158 129 130 175 193 173 186 179 165 175 199 200 193 204 190 224 221
155 149 130 140 144 154 138 167 173 186 194 215 166 196 185 209 187 195 166 178 196 221
157 148 147 147 155 159 169 180 184 171 186 195 175 166 187 63 214 172 154 138 178 197
154 164 150 151 151 162 180 190 172 160 171 180 158 142 108 116 84 107 135 129 160 151
149 159 167 149 147 169 171 176 170 151 150 145 115 103 81 75 64 93 123 152 128 134
144 147 153 142 147 159 167 166 154 140 120 123 102 85 87 86 99 81 89 148 121 107
129 136 143 142 148 147 159 151 138 138 131 116 124 92 103 111 111 127 118 95 82 67
137 136 137 141 142 147 133 136 136 136 132 127 89 55 20 22 103 107 104 102 103 100
144 139 144 144 143 137 143 136 135 141 142 122 119 114 35 338 110 107 102 107 116 116
152 142 141 146 137 142 148 143 140 148 133 128 109 138 150 324 108 110 111 112 114 119
154 150 146 134 141 149 154 138 134 138 147 128 132 161 191 170 127 138 110 119 113 122
159 156 153 134 138 149 153 146 141 134 126 120 131 159 200 255 137 118 114 115 99 62
168 166 156 143 143 147 164 135 134 111 125 127 128 138 118 337 138 142 127 123 123 110